Morristown, NJ

7:27 AM EDT on May 27, 2017 (GMT -0400)
Morristown Municipal

Weather History for KMMU - September, 2013

Change the Weather History Date:

Monday, September 16, 2013

  Actual Average Record
Temperature  
Mean Temperature 62 °F -  
Max Temperature 71 °F 75 °F 91 °F (1943)
Min Temperature 53 °F 50 °F 35 °F (1985)
Degree Days  
Heating Degree Days 3    
Growing Degree Days 12 (Base 50)    
Moisture  
Dew Point 52 °F    
Average Humidity 79    
Maximum Humidity 94    
Minimum Humidity 49    
Precipitation  
Precipitation 0.00 in - - ()
Sea Level Pressure  
Sea Level Pressure 30.10 in    
Wind  
Wind Speed 1 mph (North)    
Max Wind Speed 9 mph    
Max Gust Speed 21 mph    
Visibility 10 miles    
Events Rain    
Averages and records for this station are not official NWS values.
T = Trace of Precipitation, MM = Missing Value Source: NWS Daily Summary

Daily Weather History Graph

Daily Weather History Graph

Search for Another Location

Airport or City:

Trip Planner

Search our weather history database for the weather conditions in past years. The results will help you decide how hot, cold, wet, or windy it might be!

Date:

Astronomy

Sep. 16, 2013 Rise Set
Actual Time 6:39 AM EDT 7:04 PM EDT
Civil Twilight 6:11 AM EDT 7:32 PM EDT
Nautical Twilight 5:39 AM EDT 8:04 PM EDT
Astronomical Twilight 5:06 AM EDT 8:37 PM EDT
Moon 5:12 PM EDT (9/16) 3:21 AM EDT (9/16)
Length of Visible Light 13h 20m
Length of Day
12h 25m
Waxing Gibbous, 90% of the Moon is Illuminated
Sep 16
Waxing Gibbous
Sep 19
Full
Sep 26
Last Quarter
Oct 4
New
Oct 11
First Quarter

Hourly Weather History & Observations

Time (EDT) Temp. Dew Point Humidity Pressure Visibility Wind Dir Wind Speed Gust Speed Precip Events Conditions
12:15 AM 55.4 °F 51.8 °F 88% 30.10 in 10.0 mi Calm Calm - N/A   Clear
12:35 AM 55.4 °F 51.8 °F 88% 30.09 in 10.0 mi Calm Calm - N/A   Clear
12:55 AM 55.4 °F 53.6 °F 94% 30.09 in 10.0 mi Calm Calm - N/A   Clear
1:15 AM 55.4 °F 51.8 °F 88% 30.09 in 10.0 mi Calm Calm - N/A   Clear
1:35 AM 53.6 °F 51.8 °F 94% 30.08 in 10.0 mi Calm Calm - N/A   Scattered Clouds
1:55 AM 53.6 °F 50.0 °F 88% 30.08 in 10.0 mi Calm Calm - N/A   Scattered Clouds
2:15 AM 53.6 °F 50.0 °F 88% 30.08 in 4.0 mi Calm Calm - N/A   Scattered Clouds
2:35 AM 53.6 °F 50.0 °F 88% 30.07 in 10.0 mi Calm Calm - N/A   Scattered Clouds
2:55 AM 53.6 °F 50.0 °F 88% 30.06 in 10.0 mi Calm Calm - N/A   Scattered Clouds
3:15 AM 53.6 °F 50.0 °F 88% 30.06 in 10.0 mi Calm Calm - N/A   Scattered Clouds
3:35 AM 53.6 °F 51.8 °F 94% 30.06 in 10.0 mi Calm Calm - N/A   Mostly Cloudy
3:55 AM 53.6 °F 51.8 °F 94% 30.06 in 7.0 mi Calm Calm - N/A   Overcast
4:15 AM 55.4 °F 51.8 °F 88% 30.05 in 10.0 mi Calm Calm - N/A   Mostly Cloudy
4:35 AM 55.4 °F 53.6 °F 94% 30.05 in 10.0 mi Calm Calm - N/A   Mostly Cloudy
4:55 AM 55.4 °F 53.6 °F 94% 30.04 in 10.0 mi Calm Calm - N/A   Overcast
5:15 AM 57.2 °F 53.6 °F 88% 30.05 in 10.0 mi Calm Calm - N/A Rain Light Rain
5:35 AM 55.4 °F 53.6 °F 94% 30.05 in 10.0 mi Calm Calm - N/A   Mostly Cloudy
5:55 AM 57.2 °F 53.6 °F 88% 30.05 in 10.0 mi Calm Calm - N/A   Mostly Cloudy
6:15 AM 57.2 °F 53.6 °F 88% 30.05 in 10.0 mi Calm Calm - N/A   Clear
6:35 AM 57.2 °F 53.6 °F 88% 30.06 in 10.0 mi Calm Calm - N/A   Clear
6:45 AM 55.4 °F 53.6 °F 94% 30.06 in 10.0 mi Calm Calm - N/A   Overcast
7:45 AM 57.2 °F 55.4 °F 94% 30.07 in 8.0 mi Calm Calm - N/A Rain Light Rain
8:45 AM 59.0 °F 57.2 °F 94% 30.08 in 10.0 mi Calm Calm - N/A   Overcast
9:45 AM 60.8 °F 59.0 °F 94% 30.11 in 10.0 mi Calm Calm - N/A   Overcast
10:45 AM 62.6 °F 57.2 °F 82% 30.10 in 10.0 mi Calm Calm - N/A   Mostly Cloudy
11:45 AM 64.4 °F 51.8 °F 64% 30.10 in 10.0 mi NNE 8.1 mph - N/A   Mostly Cloudy
12:45 PM 68.0 °F 55.4 °F 64% 30.08 in 10.0 mi ENE 4.6 mph - N/A   Scattered Clouds
1:45 PM 71.6 °F 51.8 °F 50% 30.08 in 10.0 mi North 5.8 mph 20.7 mph N/A   Scattered Clouds
2:45 PM 69.8 °F 50.0 °F 49% 30.08 in 10.0 mi NNW 5.8 mph 15.0 mph N/A   Mostly Cloudy
3:45 PM 69.8 °F 50.0 °F 49% 30.07 in 10.0 mi North 5.8 mph - N/A   Overcast
4:45 PM 66.2 °F 51.8 °F 60% 30.09 in 10.0 mi NNE 6.9 mph 12.7 mph N/A   Overcast
5:45 PM 66.2 °F 51.8 °F 60% 30.11 in 10.0 mi North 6.9 mph - N/A   Overcast
6:45 PM 64.4 °F 51.8 °F 64% 30.13 in 10.0 mi North 9.2 mph - N/A   Overcast
7:45 PM 64.4 °F 51.8 °F 64% 30.14 in 10.0 mi North 6.9 mph - N/A   Overcast
8:45 PM 60.8 °F 51.8 °F 72% 30.18 in 10.0 mi North 5.8 mph - N/A   Scattered Clouds
9:45 PM 59.0 °F 50.0 °F 72% 30.21 in 10.0 mi North 5.8 mph - N/A   Scattered Clouds
10:55 PM 60.8 °F 46.4 °F 59% 30.23 in 10.0 mi North 9.2 mph - N/A   Clear
11:15 PM 59.0 °F 46.4 °F 63% 30.24 in 10.0 mi NNW 9.2 mph - N/A   Scattered Clouds
11:35 PM 59.0 °F 46.4 °F 63% 30.25 in 10.0 mi North 8.1 mph - N/A   Mostly Cloudy
11:55 PM 59.0 °F 46.4 °F 63% 30.26 in 10.0 mi North 5.8 mph - N/A   Mostly Cloudy